Flag for U.S.A. Weather past 2 weeks in Topeka, Kansas, U.S.A.

Now
44 °F

Fog.


Feels Like: 44 °F
Forecast: 45 / 75 °F
Wind: No wind

Location: Philip Billard Municipal Airport

Current Time: Oct 21, 2014 at 9:17:37 AM

Latest Report: Oct 21, 2014 at 8:53 AM


Visibility: 6 mi

Pressure: 30.14 "Hg

Humidity: 100%

Dew point: 44 °F

Location of TopekaLocation

Historic Weather in Topeka — Graph

°F

Topeka temperature yesterday

Maximum temperature yesterday: 76 °F (at 2:53 PM)
Minimum temperature yesterday: 46 °F (at 7:53 AM)
Average temperature yesterday: 58 °F

Past Weeks' High & Low Weather Summary

 TemperatureHumidityPressure
High81 °F (Oct 7, 3:53 PM)100% (Oct 8, 3:01 AM)32.00 "Hg (Oct 8, 3:01 AM)
Low38 °F (Oct 21, 7:02 AM)31% (Oct 6, 2:53 PM)29.57 "Hg (Oct 13, 2:53 PM)
Average57 °F73%29.97 "Hg
* Reported Oct 6 8:53 AM — Oct 21 8:02 AM, Topeka, Weather by CustomWeather, © 2014

Note: Actual official high and low records may vary slightly from our data, if they occured in-between our weather recording intervals... More about our weather records

Advertising

Topeka weather history for previous 24 hours

 ConditionsComfort  
Time TempWeatherWind HumidityBarometerVisibility
8:02 AM
Oct 21
40 °FPassing clouds.No wind97%30.13 "Hg10 mi
7:02 AM38 °FFog.No wind93%30.12 "Hg1 mi
6:53 AM42 °FClear.No wind92%30.12 "Hg9 mi
5:53 AM40 °FClear.No wind93%30.11 "Hg10 mi
5:01 AM42 °FFog.No wind96%30.10 "Hg1 mi
4:00 AM43 °FPassing clouds.No wind97%30.09 "Hg9 mi
2:53 AM44 °FPassing clouds.No wind96%30.09 "Hg10 mi
1:53 AM44 °FFog.No wind100%30.08 "Hg0 mi
1:01 AM45 °FFog.No wind97%30.08 "Hg1 mi
11:53 PM
Oct 20
48 °FClear.No wind86%30.07 "Hg10 mi
10:53 PM48 °FFog.No wind96%30.08 "Hg3 mi
9:53 PM51 °FClear.No wind83%30.07 "Hg10 mi
8:53 PM51 °FClear.No wind83%30.05 "Hg10 mi
7:53 PM58 °FClear.No wind67%30.05 "Hg10 mi
6:53 PM63 °FSunny.3 mph54%30.03 "Hg10 mi
5:53 PM72 °FSunny.6 mph38%30.03 "Hg10 mi
4:53 PM75 °FSunny.8 mph34%30.02 "Hg10 mi
3:53 PM76 °FSunny.9 mph35%30.02 "Hg10 mi
2:53 PM76 °FSunny.9 mph36%30.03 "Hg8 mi
1:53 PM74 °FSunny.5 mph43%30.04 "Hg10 mi
12:53 PM71 °FSunny.5 mph53%30.06 "Hg10 mi
11:53 AM68 °FSunny.5 mph59%30.07 "Hg10 mi
10:53 AM65 °FSunny.9 mph66%30.07 "Hg10 mi
9:53 AM59 °FSunny.5 mph81%30.07 "Hg10 mi
Weather by CustomWeather, © 2014

See weather overviewHow to use our weather pages